[[{"header":{"parameterUnit":"m.s-1","parameterCategory":1,"la1":30.2991,"la2":30.254,"lo1":-89.0895,"lo2":-89.0444,"dy":0.0017,"dx":0.0017,"nx":28,"ny":28,"refTime":"2025-08-30T09:00:00:Z","depth":0,"parameterNumber":2,"parameterNumberName":"U-component_of_WINDS"},"data":[0,0,0,0,0,0,0,0,0,0,0,0,0,0,0,0,0,0,0,0,0,0,0,0,0,0,0,0,0,0,0,0,0,0,0,0,0,0,0,0,0,0,0,0,0,0,0,0,0,0,0,0,0,0,0,0,0,0,-3.3877,-3.3877,0,-3.388,-3.388,-3.3881,-3.3797,-3.3794,-3.3792,-3.379,-3.3795,-3.3797,-3.3799,0,0,0,0,0,0,0,0,0,0,0,0,0,-3.3796,-3.3798,-3.3877,-3.3877,-3.3877,-3.388,-3.388,-3.3881,-3.3797,-3.3794,-3.3792,-3.3789,-3.3794,-3.3797,-3.3799,0,0,0,0,0,0,0,0,0,0,0,0,0,-3.3819,-3.3799,-3.3877,-3.3835,-3.3832,-3.388,-3.388,-3.3881,-3.3798,-3.3794,-3.3791,-3.3788,-3.3793,-3.3796,-3.38,-3.3888,0,0,-3.381,-3.3811,0,0,0,0,0,0,0,0,-3.3818,-3.3822,-3.3841,-3.3838,-3.3834,-3.3835,-3.3854,-3.3883,-3.3798,-3.3811,-3.379,-3.3786,-3.3811,-3.3812,-3.3821,-3.3888,-3.3888,-3.381,-3.3812,-3.3814,-3.3814,0,0,0,0,0,0,0,-3.3816,-3.3821,-3.3878,-3.3842,-3.3837,-3.3817,-3.3816,-3.3859,-3.383,-3.3809,-3.3803,-3.3805,-3.3808,-3.3818,-3.382,-3.3888,-3.381,-3.3813,-3.3815,-3.3816,-3.4029,-3.4032,0,0,0,0,0,0,-3.382,-3.3821,-3.3878,-3.3878,-3.3818,-3.3821,-3.382,-3.3838,-3.3829,-3.3824,-3.3808,-3.3801,-3.3814,-3.3816,-3.382,-3.3923,-3.3814,-3.3817,-3.3819,-3.4025,-3.403,-3.4034,0,0,0,0,0,0,-3.3819,-3.3826,-3.3878,-3.3848,-3.3853,-3.3826,-3.3846,-3.384,-3.3849,-3.3828,-3.3822,-3.3823,-3.3811,-3.3815,-3.3872,-3.3922,-3.3818,-3.3821,-3.4021,-3.4027,-3.4032,-3.4131,0,0,0,0,0,0,-3.3817,-3.3826,-3.386,-3.3849,-3.3855,-3.393,-3.3849,-3.3842,-3.3855,-3.3846,-3.384,-3.3836,-3.3809,-3.3867,-3.3875,-3.3925,-3.3824,-3.4016,-3.4023,-3.403,-3.4123,-3.4139,-3.4153,0,0,0,0,0,-3.3814,-3.3888,-3.3862,-3.3869,-3.3896,-3.3933,-3.3936,-3.3903,-3.3859,-3.3893,-3.3879,-3.3836,-3.3915,-3.3874,-3.3882,-3.3934,-3.4013,-3.4021,-3.4029,-3.4116,-3.4136,-3.4153,0,0,0,0,0,0,-3.3905,-3.3886,-3.3857,-3.3929,-3.3933,-3.3919,-3.396,-3.3925,-3.3942,-3.3933,-3.389,-3.389,-3.3953,-3.3949,-3.3903,-3.4019,-3.3956,-3.3967,-3.402,-3.4038,-3.4053,-3.4053,-3.3827,0,0,0,0,0,-3.3934,-3.3965,-3.3946,-3.4011,-3.4015,-3.3987,-3.4002,-3.3976,-3.3979,-3.3981,-3.3971,-3.3975,-3.4001,-3.4019,-3.4041,-3.4121,-3.4119,-3.4161,-3.4176,-3.4188,-3.4198,-3.424,-3.4259,-3.4061,-3.406,-3.406,0,0,-3.3993,-3.3986,-3.4008,-3.403,-3.403,-3.4064,-3.399,-3.4029,-3.4053,-3.3986,-3.404,-3.4032,-3.4035,-3.4104,-3.4133,-3.4102,-3.4252,-3.4199,-3.4209,-3.4212,-3.4251,-3.427,-3.4286,-3.4066,-3.4065,-3.4064,0,0,-3.4118,-3.4116,-3.417,-3.4172,-3.4173,-3.4154,-3.4167,-3.4158,-3.4151,-3.4203,-3.4153,-3.4182,-3.4227,-3.4231,-3.4239,-3.4365,-3.4327,-3.4373,-3.4452,-3.4494,-3.4509,-3.4523,-3.4569,-3.4586,-3.4383,-3.4383,-3.4383,0,-3.4191,-3.4241,-3.4202,-3.4245,-3.4256,-3.4196,-3.4251,-3.4254,-3.4263,-3.4272,-3.4236,-3.4292,-3.4289,-3.4358,-3.4389,-3.4397,-3.4411,-3.4375,-3.451,-3.4523,-3.4536,-3.4579,-3.4596,-3.4389,-3.4388,-3.4387,-3.4387,0,-3.4331,-3.4366,-3.441,-3.442,-3.4435,-3.4484,-3.4453,-3.4473,-3.4445,-3.443,-3.4484,-3.4478,-3.4499,-3.4513,-3.4486,-3.4579,-3.4559,-3.4517,-3.4454,-3.4561,-3.4601,-3.4617,-3.4397,-3.4395,-3.4393,-3.4392,0,0,-3.4516,-3.4503,-3.452,-3.4524,-3.452,-3.4547,-3.4592,-3.4612,-3.463,-3.4638,-3.4676,-3.4715,-3.4676,-3.4685,-3.4658,-3.4695,-3.4796,-3.4648,-3.4648,-3.4677,-3.4898,-3.4931,-3.4951,-3.477,-3.4773,-3.4775,-3.4898,0,-3.4638,-3.4716,-3.4682,-3.4763,-3.4795,-3.4738,-3.4778,-3.478,-3.4767,-3.4792,-3.4777,-3.4806,-3.4752,-3.4757,-3.479,-3.4777,-3.484,-3.4767,-3.4805,-3.4807,-3.4808,-3.4972,-3.5006,-3.5123,-3.4914,-3.4916,-3.4918,0,-3.4792,-3.4806,-3.489,-3.4881,-3.4893,-3.493,-3.4945,-3.4969,-3.4971,-3.4958,-3.4968,-3.4933,-3.4977,-3.4913,-3.4974,-3.4925,-3.4938,-3.4933,-3.4937,-3.4941,-3.4871,-3.4981,-3.5159,-3.5178,-3.4942,-3.494,-3.4939,0,-3.492,-3.4959,-3.5015,-3.502,-3.501,-3.5037,-3.5035,-3.5032,-3.5046,-3.5059,-3.5068,-3.5087,-3.5097,-3.5112,-3.5083,-3.5038,-3.5148,-3.5081,-3.514,-3.5141,-3.5167,-3.5166,-3.5351,-3.5173,-3.5173,-3.5172,-3.5172,0,-3.5061,-3.5115,-3.5072,-3.5107,-3.5166,-3.5126,-3.5185,-3.5176,-3.5175,-3.5207,-3.5158,-3.5189,-3.5147,-3.5174,-3.5151,-3.5205,-3.521,-3.5201,-3.5195,-3.5207,-3.5208,-3.5216,-3.5208,-3.5177,-3.5176,-3.5175,-3.5174,0,-3.5215,-3.5188,-3.5245,-3.5231,-3.5228,-3.5273,-3.526,-3.5292,-3.5274,-3.5315,-3.5322,-3.5296,-3.5325,-3.5296,-3.5323,-3.5308,-3.5381,-3.5362,-3.5381,-3.5376,-3.5437,-3.5432,-3.5636,-3.5661,-3.5465,-3.5467,-3.5468,0,-3.5308,-3.5348,-3.5338,-3.5356,-3.5356,-3.5385,-3.5399,-3.5361,-3.5378,-3.5382,-3.5413,-3.5438,-3.5456,-3.5505,-3.5488,-3.5508,-3.549,-3.556,-3.5493,-3.5504,-3.5493,-3.5492,-3.5496,-3.5575,-3.5577,-3.5579,-3.558,0,-3.5476,-3.546,-3.5482,-3.55,-3.5518,-3.553,-3.5538,-3.5555,-3.5516,-3.5537,-3.5566,-3.558,-3.5607,-3.5633,-3.5649,-3.5645,-3.5608,-3.5601,-3.5616,-3.563,-3.564,-3.5636,-3.542,-3.5597,-3.5596,-3.5594,-3.5593,-3.5593,-3.5603,-3.5636,-3.5634,-3.566,-3.5662,-3.5671,-3.57,-3.5686,-3.5709,-3.5729,-3.5705,-3.5741,-3.574,-3.5757,-3.5759,-3.5786,-3.5757,-3.5778,-3.5784,-3.579,-3.58,-3.5634,-3.5789,-3.5788,-3.5788,-3.5787,-3.5787,0,-3.577,-3.5766,-3.579,-3.5803,-3.5823,-3.5784,-3.5791,-3.5811,-3.5843,-3.5846,-3.5864,-3.5898,-3.5922,-3.5907,-3.5927,-3.5953,-3.5936,-3.596,-3.5958,-3.5958,-3.5824,-3.581,-3.5973,-3.5973,-3.5973,-3.5973,-3.5973,-3.5973,-3.5859,-3.5914,-3.5898,-3.5953,-3.5948,-3.5983,-3.599,-3.5998,-3.6,-3.604,-3.606,-3.6049,-3.6045,-3.6065,-3.6085,-3.608,-3.6091,-3.6122,-3.6111,-3.5986,-3.5968,-3.595,-3.5937,-3.6124,-3.6124,-3.6242,-3.6243,-3.6244]},{"header":{"parameterUnit":"m.s-1","parameterCategory":1,"la1":30.2991,"la2":30.254,"lo1":-89.0895,"lo2":-89.0444,"dy":0.0017,"dx":0.0017,"nx":28,"ny":28,"refTime":"2025-08-30T09:00:00:Z","depth":0,"parameterNumber":3,"parameterNumberName":"V-component_of_WINDS"},"data":[0,0,0,0,0,0,0,0,0,0,0,0,0,0,0,0,0,0,0,0,0,0,0,0,0,0,0,0,0,0,0,0,0,0,0,0,0,0,0,0,0,0,0,0,0,0,0,0,0,0,0,0,0,0,0,0,0,0,-2.5244,-2.5244,0,-2.5253,-2.5253,-2.5254,-2.5222,-2.5221,-2.522,-2.5219,-2.5227,-2.5228,-2.523,0,0,0,0,0,0,0,0,0,0,0,0,0,-2.5197,-2.5198,-2.5244,-2.5244,-2.5244,-2.5253,-2.5253,-2.5254,-2.5222,-2.5221,-2.522,-2.5218,-2.5227,-2.5228,-2.523,0,0,0,0,0,0,0,0,0,0,0,0,0,-2.5213,-2.5198,-2.5244,-2.523,-2.5228,-2.5253,-2.5253,-2.5254,-2.5222,-2.5221,-2.5219,-2.5218,-2.5227,-2.5228,-2.523,-2.5269,0,0,-2.5235,-2.5236,0,0,0,0,0,0,0,0,-2.5212,-2.5215,-2.5232,-2.5231,-2.5229,-2.5235,-2.524,-2.5259,-2.5222,-2.5224,-2.5219,-2.5217,-2.5231,-2.5232,-2.5237,-2.5269,-2.527,-2.5235,-2.5236,-2.5237,-2.5237,0,0,0,0,0,0,0,-2.5211,-2.5214,-2.5248,-2.5232,-2.523,-2.5222,-2.5223,-2.5243,-2.5236,-2.5224,-2.5222,-2.5223,-2.523,-2.5235,-2.5237,-2.527,-2.5235,-2.5236,-2.5238,-2.5238,-2.5334,-2.5335,0,0,0,0,0,0,-2.5212,-2.5213,-2.5247,-2.5248,-2.5217,-2.5224,-2.5225,-2.5235,-2.5235,-2.5234,-2.5225,-2.5222,-2.5233,-2.5235,-2.5237,-2.5283,-2.5237,-2.5238,-2.5239,-2.5332,-2.5334,-2.5336,0,0,0,0,0,0,-2.5211,-2.5215,-2.5247,-2.523,-2.5233,-2.5226,-2.5238,-2.5235,-2.5241,-2.5236,-2.5234,-2.5232,-2.5232,-2.5235,-2.5261,-2.5283,-2.5239,-2.5241,-2.533,-2.5333,-2.5335,-2.5375,0,0,0,0,0,0,-2.521,-2.5215,-2.523,-2.5231,-2.5234,-2.5272,-2.5239,-2.5237,-2.5244,-2.5241,-2.5242,-2.5241,-2.5231,-2.5259,-2.5263,-2.5284,-2.5242,-2.5328,-2.5332,-2.5334,-2.5372,-2.5378,-2.5384,0,0,0,0,0,-2.5208,-2.5241,-2.5231,-2.5236,-2.5253,-2.5273,-2.5275,-2.5264,-2.5246,-2.5261,-2.5257,-2.5241,-2.528,-2.5262,-2.5266,-2.5288,-2.5327,-2.5331,-2.5334,-2.5369,-2.5377,-2.5384,0,0,0,0,0,0,-2.5243,-2.5241,-2.523,-2.5264,-2.5269,-2.5267,-2.5286,-2.5273,-2.5283,-2.5279,-2.5264,-2.5265,-2.5294,-2.5293,-2.5274,-2.5326,-2.53,-2.5305,-2.5325,-2.5333,-2.5339,-2.5339,-2.5243,0,0,0,0,0,-2.5255,-2.5272,-2.5268,-2.5298,-2.5301,-2.5293,-2.5301,-2.5292,-2.5297,-2.5298,-2.5297,-2.5301,-2.5314,-2.5323,-2.5335,-2.5371,-2.5371,-2.5388,-2.5394,-2.5399,-2.5404,-2.5422,-2.543,-2.5347,-2.5347,-2.5347,0,0,-2.528,-2.528,-2.5291,-2.5306,-2.5308,-2.5325,-2.5295,-2.5315,-2.5327,-2.5301,-2.5326,-2.5325,-2.5329,-2.536,-2.5374,-2.5361,-2.5426,-2.5404,-2.5408,-2.5409,-2.5427,-2.5435,-2.5442,-2.5349,-2.5349,-2.5349,0,0,-2.5333,-2.5335,-2.536,-2.5364,-2.5368,-2.5362,-2.5368,-2.5369,-2.5367,-2.5392,-2.5373,-2.5387,-2.541,-2.5414,-2.5418,-2.5472,-2.5457,-2.5476,-2.5509,-2.5527,-2.5534,-2.5539,-2.5559,-2.5566,-2.548,-2.548,-2.548,0,-2.5363,-2.5388,-2.5375,-2.5396,-2.5402,-2.538,-2.5405,-2.5408,-2.5417,-2.5421,-2.5407,-2.5435,-2.5436,-2.5468,-2.5481,-2.5485,-2.5491,-2.5476,-2.5534,-2.5539,-2.5545,-2.5563,-2.557,-2.5483,-2.5482,-2.5482,-2.5482,0,-2.5424,-2.5442,-2.5462,-2.547,-2.5479,-2.5502,-2.5492,-2.5502,-2.5492,-2.5487,-2.5513,-2.5513,-2.5524,-2.5531,-2.5521,-2.5561,-2.5553,-2.5536,-2.551,-2.5555,-2.5572,-2.5579,-2.5486,-2.5485,-2.5484,-2.5484,0,0,-2.5501,-2.5502,-2.5509,-2.5513,-2.5515,-2.5529,-2.555,-2.5561,-2.557,-2.5576,-2.5594,-2.5613,-2.5598,-2.5603,-2.5593,-2.5609,-2.5652,-2.5591,-2.559,-2.5602,-2.5696,-2.5709,-2.5718,-2.5642,-2.5643,-2.5644,-2.5696,0,-2.5553,-2.5591,-2.5579,-2.5617,-2.5633,-2.5611,-2.5629,-2.5633,-2.5629,-2.5642,-2.5637,-2.5652,-2.563,-2.5633,-2.5648,-2.5644,-2.5671,-2.564,-2.5658,-2.5659,-2.5658,-2.5727,-2.5741,-2.579,-2.5703,-2.5704,-2.5705,0,-2.562,-2.5629,-2.5668,-2.5668,-2.5674,-2.5691,-2.57,-2.5713,-2.5716,-2.5712,-2.5718,-2.5704,-2.5725,-2.5698,-2.5726,-2.5705,-2.5712,-2.5711,-2.5712,-2.5714,-2.5685,-2.5731,-2.5805,-2.5813,-2.5715,-2.5714,-2.5713,0,-2.5673,-2.5694,-2.572,-2.5724,-2.5724,-2.5737,-2.5737,-2.5739,-2.5746,-2.5754,-2.5759,-2.5769,-2.5774,-2.5782,-2.5772,-2.5753,-2.5801,-2.5773,-2.5798,-2.5799,-2.581,-2.5809,-2.5887,-2.5813,-2.5813,-2.5813,-2.5813,0,-2.5733,-2.5758,-2.5744,-2.576,-2.5787,-2.5773,-2.58,-2.5798,-2.58,-2.5815,-2.5796,-2.581,-2.5795,-2.5808,-2.58,-2.5824,-2.5827,-2.5824,-2.5822,-2.5826,-2.5827,-2.5831,-2.5827,-2.5815,-2.5814,-2.5814,-2.5814,0,-2.5797,-2.5788,-2.5815,-2.5813,-2.5813,-2.5833,-2.5831,-2.5846,-2.584,-2.5859,-2.5863,-2.5855,-2.5869,-2.5859,-2.5873,-2.5867,-2.5899,-2.5892,-2.5898,-2.5897,-2.5922,-2.592,-2.6006,-2.6016,-2.5935,-2.5936,-2.5936,0,-2.5836,-2.5855,-2.5855,-2.5864,-2.5865,-2.588,-2.5887,-2.5874,-2.5882,-2.5887,-2.5901,-2.5913,-2.5923,-2.5946,-2.5941,-2.5952,-2.5945,-2.5974,-2.5946,-2.595,-2.5946,-2.5945,-2.5947,-2.598,-2.5981,-2.5981,-2.5982,0,-2.5907,-2.5902,-2.5914,-2.5924,-2.5933,-2.5941,-2.5946,-2.5954,-2.5941,-2.5951,-2.5965,-2.5973,-2.5987,-2.5999,-2.6008,-2.6008,-2.5993,-2.5991,-2.5997,-2.6002,-2.6005,-2.6004,-2.5914,-2.5989,-2.5988,-2.5988,-2.5987,-2.5987,-2.596,-2.5976,-2.5978,-2.5991,-2.5994,-2.6,-2.6013,-2.601,-2.6021,-2.6032,-2.6023,-2.604,-2.6042,-2.6052,-2.6054,-2.6067,-2.6055,-2.6064,-2.6066,-2.6069,-2.6073,-2.6003,-2.6068,-2.6068,-2.6068,-2.6068,-2.6068,0,-2.6031,-2.6031,-2.6043,-2.6052,-2.6062,-2.6047,-2.6052,-2.6062,-2.6077,-2.6081,-2.609,-2.6106,-2.6118,-2.6114,-2.6124,-2.6136,-2.6129,-2.6139,-2.6138,-2.6139,-2.6083,-2.6077,-2.6144,-2.6144,-2.6144,-2.6144,-2.6144,-2.6144,-2.6069,-2.6094,-2.6089,-2.6115,-2.6115,-2.6132,-2.6136,-2.6141,-2.6144,-2.6163,-2.6173,-2.617,-2.617,-2.618,-2.619,-2.6188,-2.6193,-2.6206,-2.6202,-2.615,-2.6142,-2.6135,-2.6129,-2.6207,-2.6207,-2.6256,-2.6257,-2.6257]}]]